Погода в Истье

Россия / Рязанская область     54°17′39″N   40°06′18″E
темп.,
°C
ветер,
м/с
пор.,
м/с
влажн.,
%
обл.,
%
осадки,
мм/ч
давл.,
гПа
погр.,
м
6 мая, чт
чт600:00+8ююз5148236 0.0 1011275
03:00+7ююз4128854 0.0 1011225
06:00+9ю51479100 0.0 1010295
09:00+12ю61375100 0.0 1010471
12:00+14ююз71270100 0.0 10101048
15:00+16ююз91464100 0.5 10091715
18:00+14юз71267100 0.2 1009889
21:00+11зюз71481100 0.3 1010850
7 мая, пт
пт700:00+9зюз4993100 1.0 1010582
03:00+8ююз3492100 4.1 1011178
06:00+8ююз3593100 0.5 1012258
09:00+9зсз4672100 0.9 1013661
12:00+13з56495 0.0 10141729
15:00+14з46425 0.0 10142096
18:00+13юз34525 0.0 1015244
21:00+9ю3459100 0.0 101646
8 мая, сб
сб800:00+7ююв496816 0.0 1015144
03:00+6ююв51372100 0.0 1015253
06:00+8ююв6157895 0.0 1013476
09:00+10ююв81572100 0.1 1011760
12:00+9ююв91789100 2.7 1009697
15:00+10ююв71692100 4.4 1006835
18:00+11ююз71394100 1.3 1005724
21:00+9юз51193100 1.6 1006455
9 мая, вс
вс900:00+7зюз51187100 0.0 1008608
03:00+5зюз51088100 0.1 1010627
06:00+5з5989100 0.1 1012866
09:00+7зсз6878100 0.1 1015997
12:00+8сз6770100 0.1 10171022
15:00+10сз6768100 0.1 10181250
18:00+9ссз676998 0.0 1020906
21:00+5ссз37846 0.0 1024133
10 мая, пн
пн1000:00+4ссз34844 0.0 102555
03:00+3с36890 0.0 102897
06:00+4с38830 0.0 1029208
09:00+10ссв57635 0.0 1030775
12:00+13св57485 0.0 10301462
15:00+15св56455 0.0 10291541
18:00+13всв486113 0.0 1029497
21:00+8св47705 0.0 103097